Deptford, New Jersey, United States
Lat: 39.83N, Lon: 75.13W
Wx Zone: NJZ017
Local Info
Past Weather Observations for Thursday, April 17, 2014

NOTE: This archive is for the closest National Weather Service station to Deptford. Information may differ from the station used for current weather conditions.

Time Weather Temperature Dewpoint Humidity Pressure Winds Precip Visibility
23:54
Overcast
39°F / 4°C 28°F / -2°C 65% 30.63 in
(1037 mb)
E 9.2 mph
(E 15 kph)
- 10SM
22:54
Overcast
39°F / 4°C 28°F / -2°C 65% 30.63 in
(1037 mb)
ENE 5.8 mph
(ENE 9 kph)
- 10SM
22:23
Mostly Cloudy
37°F / 3°C 28°F / -2°C 70% 30.63 in
(1037 mb)
NE 6.9 mph
(NE 11 kph)
- 10SM
21:54
Partly Cloudy
37°F / 3°C 28°F / -2°C 70% 30.63 in
(1037 mb)
ENE 8.1 mph
(ENE 13 kph)
- 10SM
20:54
Partly Cloudy
39°F / 4°C 27°F / -3°C 61% 30.63 in
(1037 mb)
E 9.2 mph
(E 15 kph)
- 10SM
19:54
Partly Cloudy
43°F / 6°C 27°F / -3°C 53% 30.63 in
(1037 mb)
E 11.5 mph
(E 19 kph)
- 10SM
18:54
Partly Cloudy
43°F / 6°C 27°F / -3°C 53% 30.66 in
(1038 mb)
E 11.5 mph
(E 19 kph)
- 10SM
17:54
Mostly Cloudy
46°F / 8°C 27°F / -3°C 46% 30.66 in
(1038 mb)
E 15 mph
(E 24 kph)
- 10SM
16:54
Partly Cloudy
48°F / 9°C 28°F / -2°C 46% 30.63 in
(1037 mb)
E 12.7 mph
(E 20 kph)
- 10SM
15:54
Partly Cloudy
52°F / 11°C 28°F / -2°C 41% 30.63 in
(1037 mb)
ENE 12.7 mph
(ENE 20 kph)
- 10SM
14:54
Partly Cloudy
52°F / 11°C 28°F / -2°C 41% 30.66 in
(1038 mb)
E 12.7 mph
(E 20 kph)
- 10SM
13:54
Partly Cloudy
54°F / 12°C 27°F / -3°C 35% 30.66 in
(1038 mb)
E 11.5 mph
(E 19 kph)
- 10SM
12:54
Partly Cloudy
54°F / 12°C 28°F / -2°C 38% 30.66 in
(1038 mb)
E 12.7 mph
(E 20 kph)
- 10SM
11:54
Partly Cloudy
52°F / 11°C 27°F / -3°C 38% 30.69 in
(1039 mb)
ESE 9.2 mph
(ESE 15 kph)
- 10SM
10:54
Partly Cloudy
52°F / 11°C 27°F / -3°C 38% 30.71 in
(1040 mb)
SE 11.5 mph
(SE 19 kph)
- 10SM
09:54
Partly Cloudy
48°F / 9°C 28°F / -2°C 46% 30.71 in
(1040 mb)
E 9.2 mph
(E 15 kph)
- 10SM
08:54
Partly Cloudy
46°F / 8°C 28°F / -2°C 50% 30.71 in
(1040 mb)
E 9.2 mph
(E 15 kph)
- 10SM
07:54
Partly Cloudy
45°F / 7°C 28°F / -2°C 53% 30.69 in
(1039 mb)
E 10.4 mph
(E 17 kph)
- 10SM
06:54
Partly Cloudy
41°F / 5°C 25°F / -4°C 53% 30.69 in
(1039 mb)
ENE 8.1 mph
(ENE 13 kph)
- 10SM
05:54
Partly Cloudy
37°F / 3°C 21°F / -6°C 52% 30.66 in
(1038 mb)
ENE 9.2 mph
(ENE 15 kph)
- 10SM
04:54
Partly Cloudy
37°F / 3°C 19°F / -7°C 48% 30.63 in
(1037 mb)
ENE 8.1 mph
(ENE 13 kph)
- 10SM
03:54
Clear
37°F / 3°C 18°F / -8°C 45% 30.63 in
(1037 mb)
NE 9.2 mph
(NE 15 kph)
- 10SM
02:54
Clear
37°F / 3°C 21°F / -6°C 52% 30.6 in
(1036 mb)
NE 10.4 mph
(NE 17 kph)
- 10SM
01:54
Partly Cloudy
37°F / 3°C 21°F / -6°C 52% 30.6 in
(1036 mb)
NE 6.9 mph
(NE 11 kph)
- 10SM
00:54
Partly Cloudy
39°F / 4°C 16°F / -9°C 39% 30.6 in
(1036 mb)
NE 9.2 mph
(NE 15 kph)
- 10SM
Time Weather Temperature Dewpoint Humidity Pressure Winds Precip Visibility


Weather for websites

WeatherForYou.com, LLC is not responsible for any damages or problems caused by this service. Current weather conditions are obtained from the closest station including government and personal stations which may have varying degrees of accuracy. Weather forecasts are derived from the NOAA NDFD. Like all things, this site belongs to Jesus Christ... He just trusts me to maintain it. If you have any questions or comments email webmaster@weatherforyou.com

Copyright © 2014, WeatherForYou.com LLC. All rights reserved.